W4SNA-2 Weather Reports


time (UTC)temp
F
wind
direction
speed
knots
gust
knots
rain 1hr
in
rain 24hr
in
rain mn
in
humidity
%
barometer
mb
20260507142618 60 0 0.0 0.0 0.00 0.13 0.12 100 1011.9
20260507142118 61 0 0.0 0.0 0.00 0.13 0.12 100 1011.7
20260507141620 60 0 0.0 0.0 0.00 0.13 0.12 100 1011.8
20260507141118 60 0 0.0 0.0 0.00 0.13 0.12 100 1011.9
20260507140620 60 0 0.0 0.0 0.00 0.13 0.12 100 1011.7
20260507140118 60 0 0.0 0.0 0.00 0.13 0.12 100 1011.6
20260507135706 60 0 0.0 0.0 0.00 0.13 0.12 100 1011.5
20260507135620 60 0 0.0 0.0 0.00 0.13 0.12 100 1011.5
20260507134935 60 0 0.0 0.0 0.00 0.13 0.12 100 1011.6
20260507134436 60 0 0.0 0.0 0.00 0.13 0.12 100 1011.8
20260507133935 61 0 0.0 0.0 0.00 0.13 0.12 100 1011.7
20260507133435 61 0 0.0 0.0 0.00 0.13 0.12 100 1011.7
20260507132939 61 0 0.0 0.0 0.00 0.13 0.12 100 1011.7
20260507132435 61 0 0.0 0.0 0.00 0.13 0.12 100 1011.9
20260507131936 61 0 0.0 0.0 0.00 0.13 0.12 100 1011.7
20260507131437 61 0 0.0 0.0 0.00 0.13 0.12 100 1012.0
20260507130937 61 0 0.0 0.0 0.00 0.13 0.12 100 1012.1
20260507130435 60 0 0.0 0.0 0.00 0.13 0.12 100 1012.5
20260507125935 60 0 0.0 0.0 0.01 0.13 0.12 100 1012.7
20260507125435 60 0 0.0 0.0 0.01 0.13 0.12 100 1012.7
20260507124935 60 0 0.0 0.0 0.01 0.13 0.12 100 1012.6
20260507124441 60 0 0.0 0.0 0.01 0.13 0.12 100 1012.5
20260507123941 60 0 0.0 0.0 0.01 0.13 0.12 100 1012.7
20260507123437 60 0 0.0 0.0 0.01 0.13 0.12 100 1013.1
20260507122935 60 0 0.0 0.9 0.01 0.13 0.12 100 1013.0
20260507122435 60 0 0.0 0.9 0.01 0.13 0.12 100 1013.0
20260507121935 59 0 0.0 0.0 0.01 0.13 0.12 100 1013.1
20260507121438 59 0 0.0 0.0 0.01 0.13 0.12 100 1013.2
20260507120935 59 0 0.0 6.1 0.01 0.13 0.12 100 1013.2
20260507120435 59 0 0.0 6.1 0.01 0.13 0.12 100 1012.7
20260507115936 59 0 0.0 2.6 0.00 0.12 0.11 100 1012.6
20260507115436 59 0 0.0 0.0 0.00 0.12 0.11 100 1012.7
20260507114936 59 0 0.0 0.0 0.00 0.12 0.11 100 1012.4
20260507114438 59 0 0.0 1.7 0.00 0.12 0.11 100 1012.6
20260507113935 60 0 0.0 1.7 0.00 0.12 0.11 100 1012.7
20260507113436 60 0 0.0 0.0 0.00 0.12 0.11 100 1012.5
20260507112935 60 0 0.0 0.0 0.00 0.12 0.11 100 1012.6
20260507112435 60 0 0.0 0.0 0.00 0.12 0.11 100 1012.6
20260507111939 60 0 0.0 0.0 0.00 0.12 0.11 100 1012.3
20260507111435 60 0 0.0 0.0 0.00 0.12 0.11 100 1012.1
20260507110940 60 0 0.0 1.7 0.00 0.12 0.11 100 1012.0
20260507110439 60 0 0.0 2.6 0.00 0.12 0.11 100 1012.2
20260507110032 60 0 0.0 2.6 0.00 0.12 0.11 100 1012.4
20260507105935 60 0 0.0 2.6 0.00 0.12 0.11 100 1012.4
20260507105436 60 0 0.0 0.0 0.00 0.12 0.11 100 1012.4
20260507104936 60 0 0.0 0.0 0.00 0.12 0.11 100 1012.1
20260507104436 60 0 0.0 0.0 0.00 0.12 0.11 100 1012.1
20260507103936 60 0 0.0 4.3 0.00 0.12 0.11 100 1012.1
20260507103436 60 0 0.0 4.3 0.00 0.12 0.11 100 1012.3
20260507102938 60 0 0.0 4.3 0.00 0.12 0.11 100 1012.4
20260507102515 60 0 0.0 4.3 0.00 0.12 0.11 100 1012.3
20260507102435 60 0 0.0 4.3 0.00 0.12 0.11 100 1012.3
20260507101935 59 0 0.0 0.0 0.00 0.12 0.11 100 1012.2
20260507101437 59 0 0.0 0.0 0.00 0.12 0.11 100 1011.9
20260507100935 59 0 0.0 0.0 0.00 0.12 0.11 99 1012.0
20260507100435 59 0 0.0 1.7 0.00 0.12 0.11 100 1012.0
20260507095935 60 0 0.0 1.7 0.00 0.12 0.11 99 1011.9
20260507095435 60 0 0.0 1.7 0.00 0.12 0.11 100 1012.0
20260507094936 60 0 0.0 4.3 0.00 0.12 0.11 100 1012.0
20260507094437 60 0 0.0 4.3 0.00 0.12 0.11 100 1011.9
20260507093820 61 0 0.0 6.1 0.00 0.12 0.11 100 1011.8
20260507093320 61 0 0.0 6.1 0.00 0.12 0.11 100 1011.8
20260507092319 60 277 0.9 3.5 0.00 0.12 0.11 100 1011.6
20260507091819 60 0 0.0 4.3 0.00 0.12 0.11 100 1011.5
20260507091319 60 0 0.0 4.3 0.00 0.12 0.11 100 1011.7
20260507090819 60 321 0.9 5.2 0.00 0.12 0.11 100 1011.9
20260507090319 60 321 1.7 9.6 0.00 0.12 0.11 100 1012.0
20260507085826 60 321 1.7 9.6 0.00 0.12 0.11 100 1012.4
20260507085319 60 321 0.9 8.7 0.00 0.12 0.11 100 1012.5
20260507084819 60 321 1.7 11.3 0.00 0.12 0.11 100 1012.3
20260507084319 60 320 3.5 11.3 0.00 0.12 0.11 100 1012.3
20260507083819 60 319 3.5 11.3 0.00 0.12 0.11 100 1012.3
20260507083319 60 319 3.5 11.3 0.00 0.12 0.11 100 1012.3
20260507082821 60 293 0.9 11.3 0.00 0.12 0.11 100 1012.3
20260507082319 60 298 2.6 11.3 0.00 0.12 0.11 100 1012.5
20260507081819 59 317 0.9 10.4 0.00 0.12 0.11 100 1012.4
20260507081319 59 305 2.6 12.2 0.00 0.12 0.11 100 1012.3
20260507080819 59 279 3.5 12.2 0.00 0.12 0.11 100 1012.0
20260507080319 59 266 1.7 9.6 0.00 0.12 0.11 100 1012.5
20260507075821 59 276 0.9 11.3 0.00 0.12 0.11 100 1012.3
20260507075319 59 277 2.6 12.2 0.00 0.12 0.11 100 1012.2
20260507074820 59 287 4.3 13.0 0.00 0.12 0.11 100 1012.3
20260507074319 59 285 1.7 13.0 0.00 0.12 0.11 100 1012.3
20260507073819 59 271 1.7 10.4 0.00 0.12 0.11 100 1012.4
20260507073319 59 219 2.6 10.4 0.00 0.12 0.11 100 1012.1
20260507072822 59 210 1.7 7.8 0.00 0.12 0.11 100 1012.2
20260507071821 59 198 2.6 8.7 0.00 0.12 0.11 100 1012.2
20260507071319 59 207 0.9 7.0 0.00 0.12 0.11 100 1012.4
20260507070818 59 257 0.9 9.6 0.00 0.12 0.11 100 1012.5
20260507070319 59 277 0.9 9.6 0.00 0.12 0.11 100 1012.4
20260507065821 59 258 0.9 9.6 0.00 0.12 0.11 100 1012.6
20260507065319 59 0 0.0 9.6 0.00 0.12 0.11 100 1012.8
20260507064819 59 229 2.6 11.3 0.00 0.12 0.11 100 1012.7
20260507064320 59 206 2.6 13.9 0.00 0.12 0.11 100 1012.3
20260507063819 59 207 2.6 15.6 0.00 0.12 0.11 100 1012.7
20260507063318 59 204 6.1 18.2 0.00 0.12 0.11 100 1012.6
20260507062821 59 202 8.7 18.2 0.00 0.12 0.11 100 1012.5
20260507062319 60 197 5.2 15.6 0.00 0.12 0.11 100 1012.6
20260507061820 60 201 6.1 16.5 0.00 0.12 0.11 99 1012.4
20260507061319 60 194 7.8 17.4 0.00 0.12 0.11 100 1012.6
20260507060819 60 190 8.7 19.1 0.00 0.12 0.11 100 1012.7
20260507060319 60 192 10.4 20.0 0.00 0.12 0.11 100 1012.7
20260507055819 60 193 9.6 20.0 0.01 0.12 0.11 100 1013.2
20260507055319 61 197 5.2 11.3 0.01 0.12 0.11 100 1013.6
20260507054820 61 220 1.7 11.3 0.01 0.12 0.11 100 1014.0
20260507054318 61 240 0.9 7.8 0.01 0.12 0.11 100 1014.1
20260507053819 61 256 0.9 7.0 0.01 0.12 0.11 99 1014.0
20260507053319 61 274 0.9 5.2 0.01 0.12 0.11 100 1014.1
20260507052818 61 0 0.0 7.0 0.01 0.12 0.11 99 1014.4
20260507052318 61 231 0.9 10.4 0.01 0.12 0.11 99 1014.5
20260507051818 61 236 1.7 10.4 0.01 0.12 0.11 99 1014.7
20260507051318 61 201 0.9 7.0 0.01 0.12 0.11 100 1014.8
20260507050818 61 192 0.9 5.2 0.01 0.12 0.11 100 1014.7
20260507050319 61 0 0.0 5.2 0.01 0.12 0.11 100 1014.8
20260507045819 61 197 0.9 5.2 0.00 0.11 0.10 99 1014.8
20260507045319 61 211 0.9 7.0 0.00 0.11 0.10 99 1015.2
20260507044820 61 207 0.9 7.8 0.00 0.11 0.10 99 1014.9
20260507044319 61 209 2.6 8.7 0.00 0.11 0.10 99 1014.5
20260507043819 61 233 0.9 8.7 0.00 0.11 0.10 99 1014.5
20260507043318 61 0 0.0 7.0 0.00 0.11 0.10 99 1014.5
20260507042824 62 0 0.0 6.1 0.00 0.11 0.10 99 1014.6
20260507041858 62 211 0.9 8.7 0.00 0.11 0.10 99 1014.1
20260507041358 62 214 1.7 8.7 0.01 0.11 0.10 99 1014.1
20260507040858 62 203 1.7 7.8 0.02 0.11 0.10 100 1014.4
20260507040023 62 206 2.6 8.7 0.02 0.11 0.10 99 1014.2
20260507035523 62 209 2.6 7.0 0.03 0.11 0.10 99 1014.3
20260507035023 62 207 0.9 7.8 0.04 0.11 0.10 99 1014.1
20260507034523 62 208 2.6 7.8 0.04 0.11 0.10 99 1014.0
20260507034023 62 203 1.7 7.8 0.04 0.11 0.10 99 1013.8
20260507033535 62 194 3.5 7.8 0.05 0.11 0.10 99 1013.7
20260507033023 62 208 3.5 9.6 0.05 0.11 0.10 99 1013.8
20260507032523 62 189 4.3 14.8 0.05 0.11 0.10 99 1013.8
20260507032024 62 189 4.3 17.4 0.05 0.11 0.10 99 1013.1
20260507031523 62 161 9.6 17.4 0.04 0.10 0.09 99 1013.5
20260507031023 62 0 0.0 5.2 0.03 0.09 0.08 99 1015.4
20260507030523 62 0 0.0 7.0 0.03 0.09 0.08 99 1015.3
20260507030023 62 235 0.9 7.0 0.04 0.09 0.08 99 1015.1
20260507025523 63 0 0.0 9.6 0.03 0.08 0.07 99 1015.1
20260507025023 63 0 0.0 9.6 0.02 0.07 0.06 99 1015.3
20260507024523 63 247 1.7 8.7 0.02 0.07 0.06 99 1015.3
20260507024023 63 207 0.9 8.7 0.03 0.07 0.06 99 1015.4
20260507023524 63 196 1.7 8.7 0.02 0.06 0.05 99 1015.3
20260507023023 63 197 1.7 13.9 0.02 0.06 0.05 99 1015.1
20260507022523 63 187 4.3 13.9 0.02 0.06 0.05 99 1014.7
20260507022023 63 189 2.6 13.0 0.02 0.06 0.05 99 1014.3
20260507021523 63 210 1.7 9.6 0.02 0.06 0.05 99 1014.2
20260507021023 63 208 4.3 9.6 0.02 0.06 0.05 99 1014.2
20260507020523 63 198 0.9 7.8 0.02 0.06 0.05 99 1014.2
20260507020023 63 200 1.7 7.8 0.01 0.05 0.04 99 1014.2
20260507015523 63 216 1.7 7.8 0.02 0.05 0.04 99 1014.4
20260507015023 63 218 0.9 10.4 0.02 0.05 0.04 99 1014.6
20260507014523 63 201 2.6 10.4 0.02 0.05 0.04 99 1014.4
20260507014023 62 193 2.6 10.4 0.01 0.04 0.03 99 1014.3
20260507013525 62 201 3.5 8.7 0.01 0.04 0.03 99 1014.1
20260507013023 62 196 2.6 7.8 0.01 0.04 0.03 99 1014.0
20260507012523 62 208 3.5 7.8 0.01 0.04 0.03 98 1014.1
20260507012023 62 202 4.3 8.7 0.01 0.04 0.03 98 1013.8
20260507011523 62 201 2.6 8.7 0.01 0.04 0.03 98 1013.8
20260507011024 62 189 3.5 7.8 0.01 0.04 0.03 98 1013.4
20260507010034 63 197 3.5 10.4 0.01 0.04 0.03 98 1013.8
20260507005536 62 202 3.5 7.8 0.00 0.03 0.02 97 1013.9
20260507005034 62 194 4.3 7.8 0.00 0.03 0.02 97 1014.0
20260507004534 63 202 2.6 8.7 0.00 0.03 0.02 97 1014.2
20260507004035 63 199 4.3 8.7 0.00 0.03 0.02 97 1014.0
20260507003534 63 202 3.5 9.6 0.00 0.03 0.02 96 1013.9
20260507003034 63 195 3.5 9.6 0.00 0.03 0.02 96 1014.0
20260507002534 63 198 2.6 7.8 0.00 0.03 0.02 96 1014.2
20260507002034 63 201 1.7 7.8 0.00 0.03 0.02 96 1014.1
20260507001534 63 202 3.5 8.7 0.00 0.03 0.02 95 1013.8
20260507001034 63 202 3.5 8.7 0.00 0.03 0.02 95 1013.9
20260507000535 63 202 3.5 7.8 0.00 0.03 0.02 95 1013.9
20260507000034 63 194 3.5 7.0 0.00 0.03 0.02 95 1013.7
20260506235534 63 192 3.5 7.8 0.00 0.03 0.02 95 1013.8
20260506235034 63 200 3.5 7.8 0.00 0.03 0.02 94 1013.9
20260506234535 63 196 2.6 6.1 0.00 0.03 0.02 94 1013.9
20260506233534 63 197 2.6 7.8 0.00 0.03 0.02 94 1013.8
20260506233033 63 197 1.7 9.6 0.00 0.03 0.02 94 1013.6
20260506232533 63 198 3.5 9.6 0.00 0.03 0.02 94 1013.2
20260506232034 63 195 5.2 9.6 0.00 0.03 0.02 94 1013.0
20260506231111 63 197 4.3 8.7 0.00 0.03 0.02 93 1013.5
20260506230612 63 202 3.5 8.7 0.00 0.03 0.02 93 1013.6
20260506230110 63 193 5.2 8.7 0.00 0.03 0.02 93 1013.3
20260506225611 63 191 4.3 7.8 0.00 0.03 0.02 93 1013.4
20260506225107 63 195 3.5 7.8 0.00 0.03 0.02 93 1013.5
20260506224439 64 200 0.9 7.0 0.00 0.03 0.02 92 1014.1
20260506223938 64 185 1.7 7.0 0.00 0.03 0.02 92 1014.1
20260506223438 64 197 0.9 7.0 0.00 0.03 0.02 92 1014.4
20260506222938 64 195 1.7 10.4 0.00 0.03 0.02 92 1014.6
20260506222438 64 192 3.5 12.2 0.00 0.03 0.02 92 1014.4
20260506221938 64 200 4.3 12.2 0.00 0.03 0.02 92 1014.4
20260506221438 64 199 4.3 9.6 0.00 0.03 0.02 92 1014.2
20260506220938 64 200 3.5 9.6 0.00 0.03 0.02 92 1014.2
20260506220438 64 197 3.5 7.0 0.00 0.03 0.02 92 1014.3
20260506215938 64 199 3.5 7.8 0.00 0.03 0.02 92 1014.0
20260506215438 64 195 2.6 7.8 0.00 0.03 0.02 92 1014.1
20260506214938 64 199 1.7 7.0 0.00 0.03 0.02 92 1014.1
20260506214438 64 193 0.9 6.1 0.00 0.03 0.02 91 1014.3
20260506213838 64 219 0.9 7.0 0.00 0.03 0.02 91 1014.3
20260506213337 64 0 0.0 4.3 0.00 0.03 0.02 92 1013.9
20260506212837 64 0 0.0 7.8 0.00 0.03 0.02 92 1013.8
20260506212337 64 196 2.6 8.7 0.00 0.03 0.02 91 1013.8
20260506211837 64 197 3.5 8.7 0.00 0.03 0.02 91 1013.4
20260506211337 64 199 2.6 7.8 0.00 0.03 0.02 91 1013.4
20260506210837 64 200 3.5 12.2 0.00 0.03 0.02 91 1013.2
20260506210337 64 199 2.6 13.0 0.00 0.03 0.02 91 1013.2
20260506205837 64 187 2.6 14.8 0.00 0.03 0.02 91 1013.5
20260506205337 64 196 4.3 14.8 0.00 0.03 0.02 91 1013.5
20260506204837 64 204 4.3 13.0 0.00 0.03 0.02 92 1013.7
20260506204337 64 201 4.3 13.0 0.00 0.03 0.02 92 1013.7
20260506203837 64 196 7.0 16.5 0.00 0.03 0.02 91 1013.7
20260506203337 64 192 7.0 16.5 0.00 0.03 0.02 91 1013.7
20260506202837 64 197 7.8 13.0 0.00 0.03 0.02 92 1013.8
20260506202115 64 202 5.2 13.9 0.00 0.03 0.02 92 1013.8
20260506201612 64 196 4.3 13.9 0.00 0.03 0.02 93 1014.0
20260506201112 63 193 6.1 13.9 0.00 0.03 0.02 92 1013.9
20260506200437 63 196 7.0 15.6 0.00 0.03 0.02 93 1014.0
20260506195938 63 199 4.3 19.1 0.00 0.03 0.02 93 1014.0
20260506195438 63 200 7.0 19.1 0.00 0.03 0.02 94 1014.0
20260506194937 63 198 4.3 13.9 0.00 0.03 0.02 94 1013.9
20260506194437 62 199 4.3 13.9 0.00 0.03 0.02 95 1013.8
20260506193937 62 198 5.2 10.4 0.00 0.03 0.02 95 1013.7
20260506193437 62 209 2.6 12.2 0.00 0.03 0.02 95 1013.7
20260506192937 62 200 3.5 20.9 0.00 0.03 0.02 95 1013.8
20260506192437 62 200 5.2 20.9 0.00 0.03 0.02 95 1014.1
20260506191937 61 200 7.0 18.2 0.00 0.03 0.02 96 1014.0
20260506191438 61 199 6.1 18.2 0.00 0.03 0.02 96 1013.9
20260506190937 61 191 4.3 16.5 0.00 0.03 0.02 96 1013.9
20260506190441 61 198 6.1 15.6 0.00 0.03 0.02 97 1013.9
20260506185537 60 194 11.3 26.1 0.00 0.03 0.02 97 1013.5
20260506185037 60 193 11.3 22.6 0.00 0.03 0.02 97 1013.6
20260506184537 60 185 11.3 25.2 0.00 0.03 0.02 98 1013.3
20260506184037 60 196 13.0 25.2 0.01 0.03 0.02 98 1013.2
20260506183539 60 192 12.2 21.7 0.01 0.03 0.02 98 1013.3
20260506183037 59 194 7.8 17.4 0.01 0.03 0.02 98 1013.5
20260506182539 60 189 8.7 13.9 0.01 0.03 0.02 98 1013.4
20260506182037 60 181 5.2 9.6 0.02 0.03 0.02 99 1013.8
20260506181537 59 187 1.7 8.7 0.02 0.03 0.02 98 1013.6
20260506181037 59 178 0.9 8.7 0.02 0.03 0.02 98 1013.4
20260506180537 59 177 4.3 8.7 0.02 0.03 0.02 98 1013.5
20260506180037 58 182 5.2 8.7 0.02 0.03 0.02 98 1013.7
20260506175537 58 183 1.7 7.0 0.02 0.03 0.02 98 1014.2
20260506174505 58 197 6.1 13.0 0.02 0.03 0.02 97 1015.0
20260506174007 58 194 5.2 9.6 0.01 0.02 0.01 97 1015.4
20260506173505 58 199 3.5 9.6 0.01 0.02 0.01 97 1015.5
20260506173005 58 182 2.6 9.6 0.01 0.02 0.01 96 1015.3
20260506172505 58 198 2.6 7.8 0.01 0.02 0.01 96 1015.6
20260506172005 58 201 2.6 7.0 0.00 0.01 0.00 95 1015.8
20260506171505 58 199 0.9 7.0 0.00 0.01 0.00 95 1015.8
20260506171006 58 0 0.0 7.0 0.00 0.01 0.00 94 1015.8
20260506170506 59 0 0.0 7.0 0.00 0.01 0.00 94 1015.8
20260506170005 59 186 2.6 8.7 0.00 0.01 0.00 94 1015.8
20260506165505 59 203 3.5 8.7 0.00 0.01 0.00 92 1015.7
20260506165006 59 189 3.5 10.4 0.00 0.01 0.00 92 1015.6
20260506164505 59 187 3.5 15.6 0.01 0.01 0.00 93 1015.7
20260506164005 58 195 7.0 15.6 0.01 0.01 0.00 93 1015.7
20260506163505 58 192 6.1 14.8 0.01 0.01 0.00 93 1015.6
20260506163006 58 193 3.5 14.8 0.01 0.01 0.00 94 1015.6
20260506162505 57 202 7.8 13.9 0.01 0.01 0.00 94 1015.6
20260506162005 57 197 7.0 13.0 0.01 0.01 0.00 94 1015.5
20260506161505 57 196 5.2 13.9 0.01 0.01 0.00 94 1015.4
20260506161005 57 196 7.0 15.6 0.01 0.01 0.00 94 1015.6
20260506160505 57 199 8.7 15.6 0.01 0.01 0.00 95 1015.4
20260506160005 57 197 5.2 11.3 0.01 0.01 0.01 94 1015.4
20260506155505 57 197 6.1 11.3 0.01 0.01 0.01 94 1015.4
20260506155005 57 199 6.1 13.0 0.01 0.01 0.01 94 1015.2
20260506154505 57 198 2.6 13.0 0.00 0.00 0.00 94 1015.1
20260506153448 57 195 4.3 9.6 0.00 0.00 0.00 94 1014.7
20260506152154 57 195 2.6 11.3 0.00 0.00 0.00 93 1014.8
20260506151654 57 194 1.7 11.3 0.00 0.00 0.00 93 1014.9
20260506151154 57 201 2.6 8.7 0.00 0.00 0.00 93 1014.9
20260506150654 57 200 1.7 7.0 0.00 0.00 0.00 93 1015.1
20260506150154 57 193 3.5 9.6 0.00 0.00 0.00 92 1014.9
20260506145654 58 189 1.7 13.9 0.00 0.00 0.00 91 1015.0
20260506145155 58 195 3.5 13.9 0.00 0.00 0.00 90 1015.0
20260506144726 58 193 3.5 13.0 0.00 0.00 0.00 89 1014.9
20260506144654 58 193 3.5 13.0 0.00 0.00 0.00 89 1014.9
20260506144155 58 201 7.8 12.2 0.00 0.00 0.00 89 1014.7
20260506143654 58 198 3.5 9.6 0.00 0.00 0.00 90 1014.7
20260506143155 58 195 6.1 9.6 0.00 0.00 0.00 90 1014.6